Location: Freistadt
(48.5112°N, 14.5013°E)
Time: 16:35:31
(UTC+01:00)

NOAA 19 - Visible Passes

Search period start: 20 March 2023 00:00
Search period end: 30 March 2023 01:00
Orbit: 839 x 861 km, 99.1° (Epoch: 20 March)

Date Brightness Start Highest point End Pass type
(mag) Time Alt. Az. Time Alt. Az. Time Alt. Az.
20 Mar 6.0 20:11:34 10° S 20:16:55 52° W 20:22:17 10° NNW visible
21 Mar 5.6 19:59:24 10° S 20:04:52 65° WSW 20:10:20 10° NNW visible
22 Mar 5.3 19:47:19 10° SSE 19:52:50 80° WSW 19:58:21 10° NNW visible
22 Mar 7.9 21:31:59 10° WSW 21:34:21 13° W 21:36:43 10° WNW visible
23 Mar 5.2 19:35:19 10° SSE 19:40:49 83° ENE 19:46:20 10° NNW visible
23 Mar 7.7 21:18:48 10° SW 21:22:09 16° W 21:25:29 10° NW visible
24 Mar 5.2 19:23:23 10° SSE 19:28:49 68° ENE 19:34:16 10° N visible
24 Mar 7.5 21:05:58 10° SW 21:09:58 20° W 21:13:59 10° NW visible
25 Mar 5.4 19:11:31 10° SE 19:16:51 55° ENE 19:22:11 10° N visible
25 Mar 7.2 20:53:20 10° SSW 20:57:48 25° W 21:02:18 10° NW visible
26 Mar 5.6 19:59:43 10° SE 20:04:54 45° ENE 20:10:04 10° N visible
26 Mar 6.8 21:40:51 10° SSW 21:45:41 31° W 21:50:32 10° NNW visible
27 Mar 5.8 19:48:00 10° SE 19:52:58 36° ENE 19:57:56 10° N visible
27 Mar 6.5 21:28:29 10° SSW 21:33:34 39° W 21:38:41 10° NNW visible
28 Mar 6.1 21:16:12 10° S 21:21:29 48° W 21:26:47 10° NNW visible
29 Mar 5.7 21:04:01 10° S 21:09:25 61° WSW 21:14:51 10° NNW visible
